TimeCST,TemperatureF,Dew PointF,Humidity,Sea Level PressureIn,VisibilityMPH,Wind Direction,Wind SpeedMPH,Gust SpeedMPH,PrecipitationIn,Events,Conditions,WindDirDegrees,DateUTC
12:53 AM,48.9,30.9,50,30.14,10.0,ESE,5.8,-,N/A,,Clear,120,2012-11-30 06:53:00
1:53 AM,46.9,32.0,56,30.14,10.0,SSE,8.1,-,N/A,,Clear,150,2012-11-30 07:53:00
2:53 AM,46.9,32.0,56,30.14,10.0,SSE,6.9,-,N/A,,Clear,150,2012-11-30 08:53:00
3:53 AM,46.9,32.0,56,30.13,10.0,SE,9.2,-,N/A,,Clear,140,2012-11-30 09:53:00
4:53 AM,45.0,32.0,60,30.12,10.0,SSE,8.1,-,N/A,,Clear,150,2012-11-30 10:53:00
5:53 AM,43.0,33.1,68,30.13,10.0,SSE,6.9,-,N/A,,Clear,150,2012-11-30 11:53:00
6:53 AM,43.0,33.1,68,30.14,10.0,SE,5.8,-,N/A,,Clear,140,2012-11-30 12:53:00
7:53 AM,48.9,37.0,64,30.15,10.0,SSE,6.9,-,N/A,,Clear,160,2012-11-30 13:53:00
8:53 AM,54.0,37.9,55,30.15,10.0,SE,6.9,-,N/A,,Clear,130,2012-11-30 14:53:00
9:53 AM,60.1,42.1,51,30.15,10.0,ESE,5.8,-,N/A,,Clear,120,2012-11-30 15:53:00
10:53 AM,66.0,46.9,50,30.14,10.0,SSE,10.4,-,N/A,,Clear,160,2012-11-30 16:53:00
11:53 AM,66.9,48.0,51,30.11,10.0,Variable,5.8,-,N/A,,Clear,0,2012-11-30 17:53:00
12:53 PM,70.0,48.9,47,30.08,10.0,SSW,5.8,-,N/A,,Clear,200,2012-11-30 18:53:00
1:53 PM,68.0,50.0,52,30.07,10.0,South,10.4,-,N/A,,Clear,170,2012-11-30 19:53:00
2:53 PM,66.9,48.9,52,30.06,10.0,South,9.2,-,N/A,,Partly Cloudy,170,2012-11-30 20:53:00
3:53 PM,64.0,48.0,56,30.07,10.0,South,9.2,-,N/A,,Clear,180,2012-11-30 21:53:00
4:53 PM,60.1,46.9,62,30.09,10.0,South,6.9,-,N/A,,Clear,180,2012-11-30 22:53:00
5:53 PM,55.4,46.4,72,30.10,10.0,SSE,5.8,-,N/A,,Clear,150,2012-11-30 23:53:00
6:53 PM,55.0,48.0,77,30.10,10.0,SE,8.1,-,N/A,,Clear,140,2012-12-01 00:53:00
7:53 PM,55.0,48.0,77,30.09,10.0,SE,8.1,-,N/A,,Clear,140,2012-12-01 01:53:00
8:53 PM,55.0,50.0,83,30.09,9.0,SSE,6.9,-,N/A,,Clear,150,2012-12-01 02:53:00
9:23 PM,55.4,51.8,88,30.10,8.0,SSE,9.2,-,N/A,,Mostly Cloudy,150,2012-12-01 03:23:00
9:53 PM,57.2,53.6,88,30.10,8.0,South,9.2,-,N/A,,Overcast,170,2012-12-01 03:53:00
10:53 PM,57.9,53.1,84,30.08,10.0,South,11.5,-,N/A,,Overcast,170,2012-12-01 04:53:00
11:53 PM,57.0,52.0,83,30.08,10.0,South,8.1,-,N/A,,Mostly Cloudy,180,2012-12-01 05:53:00